This demonstration page uses our WeatherBlox Daily Observations layout. Learn more.

Left ArrowRight Arrow

34.74481, -87.66753

Hourly Observations for June 21, 2019

Temp ( °F °C ) Dew Point ( °F °C ) Humidity (%) Winds ( mph kmh ) Pressure ( in mb ) Visibility ( mi km ) Precip ( " mm )
12:53 am 00:53 Clear 72 22.2 69 20.6 91 91 undefined N/A 29.94 1014 10 16 0.00 0.00
1:53 am 01:53 Clear 74 23.3 69 20.6 85 85 undefined N/A 29.94 1014 10 16 0.00 0.00
2:53 am 02:53 Clear 71 21.7 69 20.6 94 94 Calm 29.93 1014 10 16 0.00 0.00
3:53 am 03:53 Clear 70 21.1 67 19.4 90 90 S 3 6 29.94 1014 10 16 0.00 0.00
4:53 am 04:53 Clear 69 20.6 67 19.4 93 93 Calm 29.95 1014 10 16 0.00 0.00
5:53 am 05:53 Sunny 69 20.6 67 19.4 93 93 Calm 29.97 1015 10 16 0.00 0.00
6:53 am 06:53 Sunny 72 22.2 69 20.6 91 91 SSE 3 6 29.98 1015 10 16 0.00 0.00
7:53 am 07:53 Sunny 76 24.4 70 21.1 82 82 SE 3 6 30.01 1016 10 16 0.00 0.00
8:53 am 08:53 Mostly Sunny 81 27.2 71 21.7 72 72 VRB 3 6 30.01 1016 10 16 0.00 0.00
9:48 am 09:48 Mostly Cloudy 84 29 70 21 62 62 S 9 15 29.99 1016 10 16 0.00 0.00
9:53 am 09:53 Mostly Cloudy 85 29.4 68 20 57 57 S 8 13 30.00 1016 10 16 0.00 0.00
10:46 am 10:46 Cloudy 86 30 72 22.2 63 63 S 6 9 30.00 1016 10 16 0.00 0.00
10:53 am 10:53 Cloudy 86 30 72 22.2 63 63 SSE 6 9 30.01 1016 10 16 0.00 0.00
11:53 am 11:53 Mostly Cloudy 88 31.1 74 23.3 63 63 SSE 8 13 29.98 1015 10 16 0.00 0.00
12:53 pm 12:53 Mostly Cloudy 92 33.3 73 22.8 54 54 VRB 7 11 29.98 1015 10 16 0.00 0.00
1:53 pm 13:53 Partly Cloudy 93 33.9 73 22.8 52 52 SSW 8 13 29.97 1015 10 16 0.00 0.00
2:53 pm 14:53 Mostly Sunny 95 35 72 22.2 47 47 WSW 13 20 29.95 1014 10 16 0.00 0.00
3:53 pm 15:53 Mostly Sunny 95 35 73 22.8 49 49 SW 14 22 29.94 1014 10 16 0.00 0.00
4:53 pm 16:53 Partly Cloudy 95 35 73 22.8 49 49 SSW 15 24 29.93 1014 10 16 0.00 0.00
5:53 pm 17:53 Sunny 94 34.4 72 22.2 49 49 WSW 15 24 29.93 1013 10 16 0.00 0.00
6:53 pm 18:53 Sunny 91 32.8 73 22.8 56 56 WSW 10 17 29.92 1013 10 16 0.00 0.00
7:53 pm 19:53 Sunny 88 31.1 73 22.8 61 61 SW 9 15 29.94 1014 10 16 0.00 0.00
8:53 pm 20:53 Clear 86 30 74 23.3 67 67 W 8 13 29.98 1015 10 16 0.00 0.00
9:24 pm 21:24 Partly Cloudy with Nearby Thunderstorms 84 28.9 72 22.2 67 67 NNW 21 33 30.03 1017 10 16 0.00 0.00
9:41 pm 21:41 Mostly Cloudy with Nearby Thunderstorms 78 25.6 65 18.3 64 64 N 17 28 30.05 1018 10 16 0.00 0.00
9:53 pm 21:53 Cloudy with Light Rain 76 24.4 66 18.9 72 72 NNE 16 26 30.06 1018 10 16 0.00 0.03
10:53 pm 22:53 Mostly Cloudy 73 22.8 67 19.4 81 81 ENE 7 11 30.07 1018 10 16 0.01 0.25
11:53 pm 23:53 Clear 72 22.2 66 18.9 82 82 SE 6 9 30.03 1017 10 16 0.00 0.00

Powered by AerisWeather